Location: Gro�wechsungen
(51.4926°N, 10.6901°E)
Time: 14:32:34
(UTC+00:00)

Cosmos 2082 Rocket - Pass Details

Date: 23 January 2021
Orbit: 832 x 854 km, 71.0° (Epoch: 04 March)

Event Time Altitude Azimuth Distance (km) Brightness Sun altitude
Rises 18:48:24 0° 329° (NNW) 3,438 5.8 -27.2°
Reaches altitude 10° 18:50:53 10° 331° (NNW) 2,498 5.0 -27.6°
Enters shadow 18:56:02 71° 356° (N) 905 2.2 -28.4°
